Flag for Turkey Weather past 2 weeks in Samsun, Turkey

Now
79 °F

Scattered clouds.


Feels Like: 81 °F
Forecast: 65 / 83 °F
Wind: 12 mph from Northwest

Location: Samsun / Carsamba

Current Time: Aug 29, 2015 at 3:47:12 PM

Latest Report: Aug 29, 2015 at 2:50 PM


Visibility: N/A

Pressure: 30.09 "Hg

Humidity: 61%

Dew point: 64 °F

Location of SamsunLocation

Historic Weather in Samsun — Graph

°F

Samsun temperature yesterday

Maximum temperature yesterday: 81 °F (at 1:50 PM)
Minimum temperature yesterday: 63 °F (at 10:50 PM)
Average temperature yesterday: 74 °F

Past Weeks' High & Low Weather Summary

 TemperatureHumidityPressure
High86 °F (Aug 14, 2:50 PM)100% (Aug 18, 4:50 AM)30.12 "Hg (Aug 18, 4:50 AM)
Low59 °F (Aug 29, 2:50 AM)48% (Aug 24, 10:50 AM)29.74 "Hg (Aug 18, 3:50 AM)
Average76 °F77%29.89 "Hg
* Reported Aug 14 2:50 PM — Aug 29 2:50 PM, Samsun, Weather by CustomWeather, © 2015

Note: Actual official high and low records may vary slightly from our data, if they occured in-between our weather recording intervals... More about our weather records

Advertising

Samsun weather history for previous 24 hours

 ConditionsComfort  
Time TempWeatherWind HumidityBarometerVisibility
2:50 PM
Sat, Aug 29
79 °FScattered clouds.12 mph61%30.09 "HgN/A
1:50 PM79 °FScattered clouds.12 mph65%30.09 "HgN/A
12:50 PM79 °FScattered clouds.13 mph58%30.12 "HgN/A
11:50 AM77 °FBroken clouds.9 mph51%30.12 "HgN/A
10:50 AM75 °FBroken clouds.9 mph54%30.12 "HgN/A
9:50 AM73 °FPartly sunny.8 mph61%30.12 "HgN/A
8:50 AM64 °FPartly sunny.1 mph94%30.12 "HgN/A
7:50 AM63 °FScattered clouds.1 mph94%30.09 "HgN/A
6:50 AM59 °FPassing clouds.6 mph94%30.09 "HgN/A
5:50 AM59 °FClear.5 mph94%30.09 "Hg10 mi
4:50 AM59 °FClear.5 mph94%30.09 "Hg10 mi
3:50 AM59 °FClear.5 mph88%30.09 "Hg10 mi
2:50 AM59 °FClear.5 mph94%30.09 "Hg10 mi
1:50 AM61 °FClear.5 mph88%30.09 "Hg10 mi
12:50 AM63 °FClear.3 mph83%30.09 "Hg10 mi
11:50 PM
Fri, Aug 28
63 °FClear.1 mph83%30.12 "Hg10 mi
10:50 PM63 °FClear.3 mph83%30.12 "Hg10 mi
9:50 PM72 °FClear.10 mph69%30.09 "Hg10 mi
8:50 PM72 °FClear.10 mph69%30.12 "Hg10 mi
7:50 PM73 °FSunny.10 mph65%30.09 "Hg10 mi
6:50 PM75 °FPassing clouds.9 mph61%30.09 "HgN/A
5:50 PM79 °FPassing clouds.9 mph58%30.09 "HgN/A
4:50 PM79 °FPassing clouds.13 mph54%30.09 "HgN/A
3:50 PM79 °FScattered clouds.14 mph58%30.09 "HgN/A
Weather by CustomWeather, © 2015

See weather overviewHow to use our weather pages